Montauk, NY

12:35 PM EDT on July 23, 2016 (GMT -0400)
Montauk

Weather History for KMTP - October, 2011

Change the Weather History Date:

Monday, October 10, 2011

  Actual Average (KHTO) Record (KHTO)
Temperature  
Mean Temperature 70 °F -  
Max Temperature 78 °F 64 °F 84 °F (1949)
Min Temperature 64 °F 46 °F 31 °F (1989)
Cooling Degree Days 6    
Growing Degree Days 20 (Base 50)    
Moisture  
Dew Point 60 °F    
Average Humidity 71    
Maximum Humidity 93    
Minimum Humidity 53    
Precipitation  
Precipitation 0.00 in - - ()
Sea Level Pressure  
Sea Level Pressure 30.19 in    
Wind  
Wind Speed 4 mph (West)    
Max Wind Speed 9 mph    
Max Gust Speed -    
Averages and records for this station are not official NWS values.
T = Trace of Precipitation, MM = Missing Value Source: NWS Daily Summary

Daily Weather History Graph

Daily Weather History Graph

Search for Another Location

Airport or City:

Trip Planner

Search our weather history database for the weather conditions in past years. The results will help you decide how hot, cold, wet, or windy it might be!

Date:

Astronomy

Oct. 10, 2011 Rise Set
Actual Time 6:53 AM EDT 6:15 PM EDT
Civil Twilight 6:25 AM EDT 6:42 PM EDT
Nautical Twilight 5:54 AM EDT 7:14 PM EDT
Astronomical Twilight 5:22 AM EDT 7:46 PM EDT
Moon 5:17 PM EDT (10/10) 5:31 AM EDT (10/10)
Length of Visible Light 12h 17m
Length of Day
11h 21m
Waxing Gibbous, 98% of the Moon is Illuminated
Oct 10
Waxing Gibbous
Oct 11
Full
Oct 19
Last Quarter
Oct 26
New
Nov 2
First Quarter

Hourly Weather History & Observations

Time (EDT) Temp. Dew Point Humidity Pressure Visibility Wind Dir Wind Speed Gust Speed Precip Events Conditions
12:54 AM 66.0 °F 61.0 °F 84% 30.26 in - Calm Calm - N/A   Unknown
1:54 AM 64.9 °F 63.0 °F 93% 30.25 in - Calm Calm - N/A   Unknown
2:54 AM 64.9 °F 62.1 °F 90% 30.23 in - West 4.6 mph - N/A   Unknown
3:54 AM 66.0 °F 62.1 °F 87% 30.22 in - West 4.6 mph - N/A   Unknown
4:54 AM 66.9 °F 60.1 °F 79% 30.23 in - West 4.6 mph - N/A   Unknown
5:54 AM 66.0 °F 59.0 °F 78% 30.23 in - WNW 5.8 mph - N/A   Unknown
6:54 AM 64.9 °F 57.9 °F 78% 30.23 in - WNW 3.5 mph - N/A   Unknown
7:54 AM 66.0 °F 59.0 °F 78% 30.24 in - Variable 3.5 mph - N/A   Unknown
8:54 AM 68.0 °F 59.0 °F 73% 30.25 in - WNW 5.8 mph - N/A   Unknown
9:54 AM 70.0 °F 57.9 °F 65% 30.25 in - WNW 5.8 mph - N/A   Unknown
10:54 AM 70.0 °F 57.9 °F 65% 30.22 in - West 8.1 mph - N/A   Unknown
11:54 AM 73.9 °F 57.0 °F 55% 30.21 in - West 6.9 mph - N/A   Unknown
12:54 PM 75.0 °F 57.0 °F 53% 30.19 in - West 6.9 mph - N/A   Unknown
1:54 PM 77.0 °F 59.0 °F 54% 30.17 in - WSW 4.6 mph - N/A   Unknown
2:54 PM 77.0 °F 60.1 °F 56% 30.14 in - West 9.2 mph - N/A   Unknown
3:54 PM 75.0 °F 61.0 °F 62% 30.13 in - West 9.2 mph - N/A   Unknown
4:54 PM 73.9 °F 61.0 °F 64% 30.13 in - West 6.9 mph - N/A   Unknown
5:54 PM 73.0 °F 61.0 °F 66% 30.13 in - West 3.5 mph - N/A   Unknown
6:54 PM 72.0 °F 60.1 °F 66% 30.14 in - West 6.9 mph - N/A   Unknown
7:54 PM 71.1 °F 60.1 °F 68% 30.13 in - West 5.8 mph - N/A   Unknown
8:54 PM 70.0 °F 60.1 °F 71% 30.13 in - West 4.6 mph - N/A   Unknown
9:54 PM 70.0 °F 59.0 °F 68% 30.14 in - Calm Calm - N/A   Unknown
10:54 PM 69.1 °F 59.0 °F 70% 30.14 in - Calm Calm - N/A   Unknown
11:54 PM 68.0 °F 60.1 °F 76% 30.15 in - Calm Calm - N/A   Unknown